TimeEDT,TemperatureF,Dew PointF,Humidity,Sea Level PressureIn,VisibilityMPH,Wind Direction,Wind SpeedMPH,Gust SpeedMPH,PrecipitationIn,Events,Conditions,WindDirDegrees,DateUTC
12:14 AM,39.2,35.6,87,29.49,10.0,NW,16.1,21.9,N/A,,Overcast,310,2012-10-31 04:14:00
12:54 AM,39.2,35.6,87,29.49,7.0,NW,16.1,20.7,N/A,,Overcast,310,2012-10-31 04:54:00
1:14 AM,39.2,35.6,87,29.49,10.0,NW,15.0,19.6,N/A,,Overcast,320,2012-10-31 05:14:00
1:34 AM,39.2,35.6,87,29.48,10.0,NW,13.8,20.7,N/A,,Overcast,310,2012-10-31 05:34:00
1:54 AM,39.2,35.6,87,29.48,5.0,WNW,15.0,23.0,N/A,,Overcast,300,2012-10-31 05:54:00
2:14 AM,39.2,35.6,87,29.49,7.0,NW,16.1,19.6,N/A,,Overcast,310,2012-10-31 06:14:00
2:34 AM,39.2,35.6,87,29.49,5.0,NW,13.8,-,N/A,,Drizzle,310,2012-10-31 06:34:00
2:55 AM,37.4,37.4,100,29.49,3.0,WNW,12.7,21.9,N/A,,Light Drizzle,300,2012-10-31 06:55:00
3:15 AM,37.4,37.4,100,29.50,3.0,NW,12.7,18.4,N/A,,Light Drizzle,310,2012-10-31 07:15:00
3:35 AM,37.4,37.4,100,29.50,2.5,NW,12.7,19.6,N/A,,Drizzle,310,2012-10-31 07:35:00
3:55 AM,37.4,37.4,100,29.50,3.0,WNW,15.0,25.3,N/A,,Overcast,300,2012-10-31 07:55:00
4:35 AM,37.4,35.6,93,29.50,4.0,WNW,15.0,23.0,N/A,,Overcast,300,2012-10-31 08:35:00
4:55 AM,37.4,35.6,93,29.51,7.0,WNW,13.8,18.4,N/A,,Overcast,300,2012-10-31 08:55:00
5:15 AM,37.4,35.6,93,29.51,10.0,WNW,13.8,19.6,N/A,,Overcast,300,2012-10-31 09:15:00
5:35 AM,37.4,35.6,93,29.51,10.0,WNW,15.0,21.9,N/A,,Overcast,300,2012-10-31 09:35:00
5:55 AM,37.4,35.6,93,29.52,10.0,WNW,17.3,21.9,N/A,,Overcast,300,2012-10-31 09:55:00
6:16 AM,37.4,35.6,93,29.52,10.0,WNW,13.8,-,N/A,,Overcast,300,2012-10-31 10:16:00
6:31 AM,37.4,35.6,93,29.52,10.0,NW,13.8,-,N/A,,Overcast,310,2012-10-31 10:31:00
7:11 AM,37.4,35.6,93,29.53,10.0,NW,15.0,23.0,N/A,,Overcast,310,2012-10-31 11:11:00
7:31 AM,37.4,35.6,93,29.53,10.0,NW,15.0,20.7,N/A,,Overcast,310,2012-10-31 11:31:00
7:51 AM,37.4,35.6,93,29.53,10.0,NW,13.8,20.7,N/A,,Overcast,310,2012-10-31 11:51:00
8:11 AM,39.2,35.6,87,29.53,10.0,NW,13.8,20.7,N/A,,Overcast,310,2012-10-31 12:11:00
8:31 AM,39.2,35.6,87,29.54,10.0,NW,12.7,-,N/A,,Overcast,310,2012-10-31 12:31:00
8:51 AM,39.2,35.6,87,29.55,10.0,NW,11.5,19.6,N/A,,Overcast,310,2012-10-31 12:51:00
9:12 AM,39.2,35.6,87,29.55,10.0,NW,12.7,20.7,N/A,,Overcast,310,2012-10-31 13:12:00
9:32 AM,39.2,35.6,87,29.56,10.0,NW,15.0,20.7,N/A,,Drizzle,310,2012-10-31 13:32:00
9:52 AM,39.2,37.4,93,29.56,4.0,WNW,11.5,19.6,N/A,,Drizzle,300,2012-10-31 13:52:00
10:12 AM,39.2,37.4,93,29.56,4.0,WNW,12.7,18.4,N/A,,Light Drizzle,300,2012-10-31 14:12:00
10:32 AM,39.2,37.4,93,29.57,10.0,NW,12.7,20.7,N/A,,Overcast,310,2012-10-31 14:32:00
10:52 AM,41.0,37.4,87,29.56,10.0,NW,12.7,-,N/A,,Overcast,310,2012-10-31 14:52:00
11:12 AM,41.0,37.4,87,29.57,10.0,NW,16.1,20.7,N/A,,Overcast,310,2012-10-31 15:12:00
11:32 AM,41.0,37.4,87,29.57,10.0,NW,12.7,-,N/A,,Overcast,310,2012-10-31 15:32:00
11:52 AM,41.0,37.4,87,29.58,10.0,WNW,11.5,-,N/A,,Light Drizzle,300,2012-10-31 15:52:00
12:18 PM,42.8,37.4,81,29.58,10.0,NW,13.8,17.3,N/A,,Overcast,310,2012-10-31 16:18:00
12:33 PM,42.8,37.4,81,29.58,10.0,NW,12.7,-,N/A,,Overcast,320,2012-10-31 16:33:00
12:53 PM,42.8,37.4,81,29.58,10.0,WNW,12.7,17.3,N/A,,Overcast,300,2012-10-31 16:53:00
1:13 PM,42.8,37.4,81,29.58,10.0,WNW,10.4,17.3,N/A,,Overcast,300,2012-10-31 17:13:00
1:33 PM,42.8,37.4,81,29.58,10.0,NW,12.7,17.3,N/A,,Overcast,320,2012-10-31 17:33:00
1:53 PM,42.8,37.4,81,29.58,10.0,WNW,9.2,16.1,N/A,,Overcast,300,2012-10-31 17:53:00
2:18 PM,42.8,37.4,81,29.58,10.0,WNW,13.8,17.3,N/A,,Light Drizzle,300,2012-10-31 18:18:00
2:33 PM,42.8,39.2,87,29.58,10.0,WNW,11.5,-,N/A,Rain,Light Rain,290,2012-10-31 18:33:00
2:58 PM,42.8,39.2,87,29.58,10.0,WNW,8.1,-,N/A,Rain,Light Rain,300,2012-10-31 18:58:00
3:14 PM,42.8,39.2,87,29.58,7.0,WNW,8.1,-,N/A,Rain,Light Rain,300,2012-10-31 19:14:00
3:54 PM,42.8,39.2,87,29.59,7.0,WNW,15.0,-,N/A,,Overcast,290,2012-10-31 19:54:00
4:14 PM,42.8,39.2,87,29.59,10.0,WNW,13.8,19.6,N/A,,Overcast,300,2012-10-31 20:14:00
4:34 PM,42.8,39.2,87,29.59,10.0,WNW,10.4,20.7,N/A,,Overcast,290,2012-10-31 20:34:00
4:54 PM,42.8,39.2,87,29.59,10.0,WNW,9.2,-,N/A,,Overcast,290,2012-10-31 20:54:00
5:14 PM,44.6,39.2,81,29.59,10.0,WNW,8.1,16.1,N/A,,Overcast,290,2012-10-31 21:14:00
5:34 PM,42.8,39.2,87,29.60,10.0,West,11.5,-,N/A,,Drizzle,280,2012-10-31 21:34:00
5:54 PM,42.8,39.2,87,29.61,7.0,WNW,13.8,17.3,N/A,Rain,Light Rain,290,2012-10-31 21:54:00
6:14 PM,42.8,39.2,87,29.61,10.0,WNW,11.5,19.6,N/A,Rain,Light Rain,290,2012-10-31 22:14:00
6:35 PM,42.8,39.2,87,29.61,10.0,West,12.7,18.4,N/A,,Overcast,280,2012-10-31 22:35:00
6:55 PM,42.8,39.2,87,29.62,10.0,WNW,9.2,12.7,N/A,,Overcast,300,2012-10-31 22:55:00
7:15 PM,42.8,39.2,87,29.63,10.0,West,9.2,-,N/A,,Overcast,280,2012-10-31 23:15:00
7:35 PM,42.8,39.2,87,29.63,10.0,WNW,11.5,-,N/A,,Overcast,290,2012-10-31 23:35:00
8:15 PM,42.8,39.2,87,29.63,10.0,WNW,11.5,-,N/A,,Overcast,290,2012-11-01 00:15:00
8:35 PM,42.8,39.2,87,29.64,10.0,WNW,13.8,19.6,N/A,,Overcast,290,2012-11-01 00:35:00
8:55 PM,42.8,39.2,87,29.64,10.0,WNW,12.7,17.3,N/A,,Overcast,290,2012-11-01 00:55:00
9:16 PM,42.8,39.2,87,29.64,10.0,WNW,9.2,-,N/A,,Overcast,290,2012-11-01 01:16:00
9:31 PM,42.8,39.2,87,29.64,10.0,WNW,11.5,16.1,N/A,,Overcast,300,2012-11-01 01:31:00
9:51 PM,42.8,37.4,81,29.65,10.0,WNW,10.4,-,N/A,,Overcast,290,2012-11-01 01:51:00
10:11 PM,42.8,37.4,81,29.65,10.0,WNW,10.4,18.4,N/A,,Overcast,290,2012-11-01 02:11:00
10:31 PM,42.8,37.4,81,29.65,10.0,WNW,12.7,16.1,N/A,,Overcast,300,2012-11-01 02:31:00
10:51 PM,42.8,37.4,81,29.66,10.0,WNW,10.4,-,N/A,,Overcast,290,2012-11-01 02:51:00
11:11 PM,42.8,37.4,81,29.65,10.0,WNW,10.4,-,N/A,,Overcast,300,2012-11-01 03:11:00
11:31 PM,42.8,37.4,81,29.65,10.0,WNW,10.4,17.3,N/A,,Overcast,300,2012-11-01 03:31:00
11:51 PM,42.8,39.2,87,29.66,10.0,WNW,11.5,-,N/A,,Overcast,290,2012-11-01 03:51:00